Regional Weather Roundup
Issued by NWS

Current Version | Previous Version | Text Only | Print | Product List | Glossary On
Versions: 1 2 3 4 5 6 7 8 9 10 11 12 13 14 15 16 17 18 19 20 21 22 23 24 25 26 27 28 29 30 31 32 33 34 35 36 37 38 39 40 41 42 43 44 45 46 47 48 49 50
000
ASUS42 KKEY 071910
RWRKEY

FLORIDA REGIONAL WEATHER ROUNDUP FOR THE FLORIDA KEYS
NATIONAL WEATHER SERVICE KEY WEST FLORIDA
300 PM EDT TUE JUL 07 2015

...SOUTH FLORIDA AND THE KEYS...

CITY           SKY/WX    TMP DP  RH WIND       PRES   REMARKS
FORT MYERS     PTSUNNY   84  73  69 SE13G24   30.13F THUNDER HX  90
SW REGIONAL AP CLOUDY    80  70  71 SE14      30.15R
NAPLES         LGT RAIN  73  72  94 MISG      30.16R FOG
MIAMI          PTSUNNY   90  70  51 SE12      30.16F HX  95
WEST KENDALL   PTSUNNY   83  65  54 SW12      30.17S
HOMESTEAD      PTSUNNY   80  64  57 SW13      30.17S
MARATHON       PTSUNNY   91  77  63 E9        30.15R HX 104
BOCA CHICA NAS PTSUNNY   90  75  61 E10       30.14R HX 100
KEY WEST INTL  SUNNY     90  75  61 SE9       30.14S HX 100

...INTERNATIONAL WEATHER...

CITY           SKY/WX    TMP DP  RH WIND       PRES   REMARKS
NASSAU BAHAMAS MOSUNNY   88  75  66 E10       30.16F HX  97
CANCUN MEXICO  PTSUNNY   90  77  66 E13       30.08F HX 102
COZUMEL MEXICO PTSUNNY   84  79  84 NE9       30.08F HX  96

ADJACENT COASTAL WATERS...

STATION/POSITION TIME  SKY/WX   TEMP    WIND        PRES    WAVE
                                AIR SEA DIR/SP/G            HT/PER
                 (UTC)          (F)     (DEG/KT/KT) (MB)    (FT/S)
PULASKI SHOAL LI 1800            85     120/  8/  9 1020.6F
SAND KEY         1850            85     110/  9/ 11 1020.5F
SOMBRERO KEY     1800            86     110/ 10/ 11 1021.4F
LONG KEY         1800            85 87  120/  8/ 10 1021.6F
MOLASSES REEF    1800            84 86  110/  7/  8 1021.3F
FOWEY ROCKS      NOT AVBL

$$


USA.gov is the U.S. government's official web portal to all federal, state and local government web resources and services.